Weather History for Cairo, IL

Change the Weather History Date:

Tuesday, March 5, 2013

  Actual Average Record
Temperature  
Mean Temperature 42 °F -  
Max Temperature 48 °F 51 °F 73 °F (1949)
Min Temperature 35 °F 35 °F 6 °F (1960)
Degree Days  
Heating Degree Days 24    
Moisture  
Dew Point 33 °F    
Average Humidity 73    
Maximum Humidity 87    
Minimum Humidity 52    
Precipitation  
Precipitation 0.04 in - - ()
Sea Level Pressure  
Sea Level Pressure 29.92 in    
Wind  
Wind Speed 9 mph (WNW)    
Max Wind Speed 29 mph    
Max Gust Speed 41 mph    
Visibility 9 miles    
Events Snow    
Averages and records for this station are not official NWS values.
T = Trace of Precipitation, MM = Missing Value Source: NWS Daily Summary

Daily Weather History Graph

Daily Weather History Graph

Search for Another Location

Airport:

Trip Planner

Search our weather history database for the weather conditions in past years. The results will help you decide how hot, cold, wet, or windy it might be!

Date:

Astronomy

Mar. 05, 2013 Rise Set
Actual Time 6:21 AM CST 5:55 PM CST
Civil Twilight 5:55 AM CST 6:21 PM CST
Nautical Twilight 5:25 AM CST 6:51 PM CST
Astronomical Twilight 4:55 AM CST 7:21 PM CST
Moon 1:27 AM CST (3/5) 11:40 AM CST (3/5)
Length of Visible Light 12h 25m
Length of Day
11h 33m
Last Quarter, 40% of the Moon is Illuminated
Mar 5
Last Quarter
Mar 11
New
Mar 19
First Quarter
Mar 27
Full
Apr 2
Last Quarter

Hourly Weather History & Observations

Time (CST) Temp. Windchill Dew Point Humidity Pressure Visibility Wind Dir Wind Speed Gust Speed Precip Events Conditions
12:35 AM 48.2 °F - 41.0 °F 76% 29.77 in 10.0 mi NE 3.5 mph - N/A   Overcast
12:55 AM 48.2 °F - 41.0 °F 76% 29.77 in 10.0 mi Calm Calm - N/A   Overcast
1:15 AM 48.2 °F - 42.8 °F 82% 29.76 in 10.0 mi ESE 6.9 mph - N/A   Overcast
1:35 AM 48.2 °F - 42.8 °F 82% 29.76 in 10.0 mi ESE 5.8 mph - N/A   Overcast
1:55 AM 48.2 °F - 42.8 °F 82% 29.76 in 10.0 mi SE 4.6 mph - N/A   Mostly Cloudy
2:15 AM 48.2 °F - 42.8 °F 82% 29.76 in 10.0 mi ENE 3.5 mph - N/A   Mostly Cloudy
2:35 AM 46.4 °F 45.2 °F 41.0 °F 81% 29.76 in 10.0 mi NE 3.5 mph - N/A   Overcast
2:55 AM 46.4 °F 44.3 °F 41.0 °F 81% 29.76 in 10.0 mi North 4.6 mph - N/A   Overcast
3:15 AM 46.4 °F 45.2 °F 41.0 °F 81% 29.75 in 10.0 mi NNE 3.5 mph - N/A   Scattered Clouds
3:35 AM 44.6 °F - 39.2 °F 81% 29.76 in 10.0 mi Calm Calm - N/A   Clear
3:55 AM 44.6 °F - 41.0 °F 87% 29.76 in 10.0 mi Calm Calm - N/A   Clear
4:15 AM 41.0 °F - 37.4 °F 87% 29.78 in 7.0 mi Calm Calm - N/A   Scattered Clouds
4:35 AM 42.8 °F 40.1 °F 39.2 °F 87% 29.79 in 10.0 mi WNW 4.6 mph - N/A   Mostly Cloudy
4:55 AM 44.6 °F 42.2 °F 41.0 °F 87% 29.79 in 10.0 mi NW 4.6 mph - N/A   Scattered Clouds
5:15 AM 44.6 °F 42.2 °F 41.0 °F 87% 29.78 in 10.0 mi NW 4.6 mph - N/A   Scattered Clouds
5:35 AM 44.6 °F 41.4 °F 41.0 °F 87% 29.77 in 10.0 mi NNW 5.8 mph - N/A   Mostly Cloudy
5:55 AM 44.6 °F - 41.0 °F 87% 29.77 in 10.0 mi Calm Calm - N/A   Scattered Clouds
6:35 AM 42.8 °F - 39.2 °F 87% 29.77 in 10.0 mi Calm Calm - N/A   Scattered Clouds
6:55 AM 44.6 °F 42.2 °F 41.0 °F 87% 29.79 in 10.0 mi South 4.6 mph - N/A   Mostly Cloudy
7:15 AM 44.6 °F 43.1 °F 41.0 °F 87% 29.80 in 10.0 mi South 3.5 mph - N/A   Overcast
7:35 AM 46.4 °F - 42.8 °F 87% 29.80 in 5.0 mi Calm Calm - 0.01 in   Unknown
7:55 AM 46.4 °F 44.3 °F 42.8 °F 87% 29.81 in 4.0 mi West 4.6 mph - 0.01 in   Unknown
8:15 AM 46.4 °F 42.9 °F 42.8 °F 87% 29.82 in 5.0 mi WNW 6.9 mph - N/A   Unknown
8:35 AM 46.4 °F 41.5 °F 42.8 °F 87% 29.83 in 3.0 mi NW 10.4 mph 16.1 mph 0.02 in   Unknown
8:55 AM 46.4 °F 42.4 °F 42.8 °F 87% 29.82 in 4.0 mi NW 8.1 mph - 0.02 in   Unknown
9:15 AM 46.4 °F 41.1 °F 41.0 °F 81% 29.83 in 5.0 mi WNW 11.5 mph 17.3 mph 0.01 in   Overcast
9:35 AM 44.6 °F 37.4 °F 41.0 °F 87% 29.85 in 5.0 mi WNW 16.1 mph 23.0 mph 0.01 in   Overcast
9:55 AM 42.8 °F 35.4 °F 37.4 °F 81% 29.86 in 10.0 mi WNW 15.0 mph 26.5 mph 0.01 in   Overcast
10:15 AM 41.0 °F 32.2 °F 35.6 °F 81% 29.86 in 7.0 mi NW 18.4 mph 27.6 mph N/A   Overcast
10:35 AM 39.2 °F 29.6 °F 33.8 °F 81% 29.87 in 4.0 mi NW 19.6 mph 31.1 mph N/A   Unknown
10:55 AM 37.4 °F 28.2 °F 33.8 °F 87% 29.89 in 3.0 mi NW 16.1 mph 27.6 mph N/A Snow Light Snow
11:15 AM 37.4 °F 27.8 °F 33.8 °F 87% 29.91 in 4.0 mi WNW 17.3 mph 25.3 mph N/A Snow Light Snow
11:35 AM 37.4 °F 27.5 °F 33.8 °F 87% 29.92 in 4.0 mi WNW 18.4 mph 26.5 mph N/A Snow Light Snow
11:55 AM 37.4 °F 28.5 °F 33.8 °F 87% 29.93 in 5.0 mi WNW 15.0 mph 23.0 mph N/A Snow Light Snow
12:15 PM 37.4 °F 29.3 °F 33.8 °F 87% 29.93 in 7.0 mi WNW 12.7 mph 24.2 mph N/A   Overcast
12:35 PM 39.2 °F 30.8 °F 33.8 °F 81% 29.94 in 10.0 mi WNW 15.0 mph 25.3 mph N/A   Overcast
12:55 PM 39.2 °F 30.8 °F 33.8 °F 81% 29.94 in 10.0 mi West 15.0 mph 19.6 mph N/A   Overcast
1:15 PM 39.2 °F 30.5 °F 33.8 °F 81% 29.94 in 10.0 mi WNW 16.1 mph 23.0 mph N/A   Overcast
1:35 PM 39.2 °F 30.8 °F 33.8 °F 81% 29.94 in 10.0 mi WNW 15.0 mph 24.2 mph N/A   Overcast
1:55 PM 41.0 °F 32.2 °F 33.8 °F 76% 29.94 in 10.0 mi WNW 18.4 mph 25.3 mph N/A   Overcast
2:15 PM 42.8 °F 34.0 °F 33.8 °F 70% 29.94 in 10.0 mi West 20.7 mph 26.5 mph N/A   Overcast
2:35 PM 42.8 °F 34.3 °F 32.0 °F 66% 29.95 in 10.0 mi WNW 19.6 mph 33.4 mph N/A   Overcast
2:55 PM 42.8 °F 34.3 °F 32.0 °F 66% 29.96 in 10.0 mi WNW 19.6 mph 26.5 mph N/A   Overcast
3:15 PM 42.8 °F 36.2 °F 32.0 °F 66% 29.97 in 10.0 mi WNW 12.7 mph 24.2 mph N/A   Overcast
3:35 PM 41.0 °F 30.9 °F 30.2 °F 65% 29.98 in 10.0 mi West 24.2 mph 32.2 mph N/A   Overcast
3:55 PM 42.8 °F 33.8 °F 30.2 °F 61% 29.99 in 10.0 mi WNW 21.9 mph 31.1 mph N/A   Mostly Cloudy
4:15 PM 42.8 °F 34.3 °F 26.6 °F 53% 29.99 in 10.0 mi West 19.6 mph 29.9 mph N/A   Mostly Cloudy
4:35 PM 42.8 °F 32.9 °F 26.6 °F 53% 30.00 in 10.0 mi West 26.5 mph 29.9 mph N/A   Mostly Cloudy
4:55 PM 42.8 °F 35.1 °F 26.6 °F 53% 30.01 in 10.0 mi WNW 16.1 mph 29.9 mph N/A   Overcast
5:15 PM 41.0 °F 31.6 °F 24.8 °F 53% 30.03 in 10.0 mi WNW 20.7 mph 32.2 mph N/A   Mostly Cloudy
5:35 PM 41.0 °F 30.0 °F 24.8 °F 53% 30.05 in 10.0 mi WNW 28.8 mph 35.7 mph N/A   Overcast
5:55 PM 37.4 °F 25.4 °F 21.2 °F 52% 30.07 in 10.0 mi NW 27.6 mph 41.4 mph N/A   Mostly Cloudy
6:15 PM 37.4 °F 26.4 °F 21.2 °F 52% 30.08 in 10.0 mi WNW 23.0 mph 31.1 mph N/A   Overcast
6:35 PM 37.4 °F 27.5 °F 21.2 °F 52% 30.08 in 10.0 mi West 18.4 mph 25.3 mph N/A   Overcast
6:55 PM 37.4 °F 27.5 °F 21.2 °F 52% 30.07 in 10.0 mi West 18.4 mph 26.5 mph N/A   Overcast
7:15 PM 37.4 °F 27.8 °F 21.2 °F 52% 30.08 in 10.0 mi West 17.3 mph 27.6 mph N/A   Overcast
7:35 PM 37.4 °F 28.5 °F 23.0 °F 56% 30.08 in 10.0 mi West 15.0 mph 21.9 mph N/A   Overcast
7:55 PM 35.6 °F 27.1 °F 23.0 °F 60% 30.07 in 10.0 mi West 12.7 mph 21.9 mph N/A   Mostly Cloudy
8:15 PM 35.6 °F 26.6 °F 23.0 °F 60% 30.07 in 10.0 mi West 13.8 mph 21.9 mph N/A   Scattered Clouds
8:35 PM 35.6 °F 26.2 °F 23.0 °F 60% 30.07 in 10.0 mi West 15.0 mph 21.9 mph N/A   Mostly Cloudy
8:55 PM 37.4 °F 28.2 °F 23.0 °F 56% 30.08 in 10.0 mi West 16.1 mph 24.2 mph N/A   Overcast
9:15 PM 37.4 °F 26.9 °F 23.0 °F 56% 30.09 in 10.0 mi WNW 20.7 mph 29.9 mph N/A   Overcast
9:35 PM 37.4 °F 26.9 °F 24.8 °F 60% 30.10 in 10.0 mi WNW 20.7 mph 33.4 mph N/A   Overcast
9:55 PM 37.4 °F 27.8 °F 24.8 °F 60% 30.10 in 10.0 mi WNW 17.3 mph 31.1 mph N/A   Overcast
10:15 PM 37.4 °F 28.2 °F 24.8 °F 60% 30.10 in 10.0 mi WNW 16.1 mph 24.2 mph N/A   Overcast
10:35 PM 37.4 °F 29.3 °F 24.8 °F 60% 30.10 in 10.0 mi WNW 12.7 mph - N/A   Overcast
10:55 PM 37.4 °F 27.8 °F 24.8 °F 60% 30.10 in 10.0 mi WNW 17.3 mph 26.5 mph N/A   Overcast
11:15 PM 37.4 °F 27.8 °F 24.8 °F 60% 30.10 in 10.0 mi WNW 17.3 mph 25.3 mph N/A   Overcast
11:35 PM 37.4 °F 28.9 °F 24.8 °F 60% 30.11 in 10.0 mi WNW 13.8 mph 21.9 mph N/A   Overcast
11:55 PM 37.4 °F 27.2 °F 24.8 °F 60% 30.11 in 10.0 mi WNW 19.6 mph 29.9 mph N/A   Overcast